This is the latest recevied weather packets stored in our database for station/object KD4MBW. If no packets are shown the sender has not sent any weather packets the latest 10 day(s).
| Time | Temp. | Humidity | Pressure | Rain* | Wind** | Luminosity | Snow |
|---|---|---|---|---|---|---|---|
| 1788140012 | 25° C | 98% | 1017.4 hPa | 0 mm | - | 0 W/m² | - |
| 1788139707 | 25° C | 98% | 1017.5 hPa | 0 mm | - | 0 W/m² | - |
| 1788139403 | 25° C | 97% | 1017.2 hPa | 0 mm | - | 0 W/m² | - |
| 1788139101 | 25° C | 97% | 1017.3 hPa | 0 mm | - | 0 W/m² | - |
| 1788138796 | 25.56° C | 97% | 1017.4 hPa | 0 mm | - | 0 W/m² | - |
| 1788138487 | 25.56° C | 96% | 1017.3 hPa | 0 mm | - | 0 W/m² | - |
| 1788138187 | 25.56° C | 96% | 1017.6 hPa | 0 mm | - | 0 W/m² | - |
| 1788137883 | 25.56° C | 97% | 1017.6 hPa | 0 mm | - | 0 W/m² | - |
| 1788137578 | 25.56° C | 96% | 1017.6 hPa | 0 mm | - | 0 W/m² | - |
| 1788137273 | 25.56° C | 96% | 1017.5 hPa | 0 mm | - | 0 W/m² | - |
| 1788136968 | 25.56° C | 96% | 1017.4 hPa | 0 mm | - | 0 W/m² | - |
| 1788136664 | 25.56° C | 96% | 1017.3 hPa | 0 mm | - | 0 W/m² | - |
| 1788136360 | 25.56° C | 98% | 1017.2 hPa | 0 mm | - | 0 W/m² | - |
| 1788136059 | 25.56° C | 98% | 1017.1 hPa | 0 mm | - | 0 W/m² | - |
| 1788135758 | 25.56° C | 99% | 1017.4 hPa | 0 mm | - | 0 W/m² | - |
| 1788135455 | 25.56° C | 99% | 1017.2 hPa | 0 mm | - | 0 W/m² | - |
| 1788135149 | 25.56° C | 99% | 1017.2 hPa | 0 mm | - | 1 W/m² | - |
| 1788134846 | 26.11° C | 97% | 1017.1 hPa | 0 mm | - | 1 W/m² | - |
| 1788134541 | 26.11° C | 95% | 1017.2 hPa | 0 mm | - | 3 W/m² | - |
| 1788134240 | 26.11° C | 96% | 1017.3 hPa | 0 mm | - | 5 W/m² | - |
| 1788133935 | 26.11° C | 95% | 1017.1 hPa | 0 mm | - | 8 W/m² | - |
| 1788133630 | 26.11° C | 95% | 1017.3 hPa | 0 mm | - | 11 W/m² | - |
| 1788133326 | 26.11° C | 94% | 1017.2 hPa | 3.05 mm | - | 16 W/m² | - |
| 1788133021 | 26.67° C | 92% | 1016.9 hPa | 3.05 mm | - | 19 W/m² | - |
| 1788132717 | 26.67° C | 91% | 1017.4 hPa | 0 mm | - | 35 W/m² | - |
* Rain latest hour (hover to see other rain measurements)
** Current wind speed in m/s (hover to see current wind gust speed)